Weather History for Chillicothe, MO

Change the Weather History Date:

Friday, January 31, 2014

  Actual Average (KIRK) Record (KIRK)
Temperature  
Mean Temperature 20 °F 27 °F  
Max Temperature 24 °F 36 °F 69 °F (1989)
Min Temperature 16 °F 17 °F -15 °F (1936)
Degree Days  
Heating Degree Days 45 38  
Month to date heating degree days 1206  
Since 1 July heating degree days 3547  
Cooling Degree Days 0 0  
Month to date cooling degree days 0  
Year to date cooling degree days 0  
Moisture  
Dew Point 10 °F    
Average Humidity 70    
Maximum Humidity 81    
Minimum Humidity 51    
Precipitation  
Precipitation 0.12 in 0.07 in 0.40 in (1985)
Month to date precipitation 1.27  
Year to date precipitation 1.27  
Sea Level Pressure  
Sea Level Pressure 30.13 in    
Wind  
Wind Speed 9 mph (NNE)    
Max Wind Speed 14 mph    
Max Gust Speed 18 mph    
T = Trace of Precipitation, MM = Missing Value Source: NWS Daily Summary

Daily Weather History Graph

Daily Weather History Graph

Search for Another Location

Airport:

Trip Planner

Search our weather history database for the weather conditions in past years. The results will help you decide how hot, cold, wet, or windy it might be!

Date:

Astronomy

Jan. 31, 2014 Rise Set
Actual Time 7:23 AM CST 5:32 PM CST
Civil Twilight 6:54 AM CST 6:01 PM CST
Nautical Twilight 6:22 AM CST 6:33 PM CST
Astronomical Twilight 5:50 AM CST 7:05 PM CST
Moon 7:33 AM CST (1/31) 6:57 PM CST (1/31)
Length of Visible Light 11h 06m
Length of Day
10h 09m
New Moon, 1% of the Moon is Illuminated
Jan 31
New Moon
Feb 6
First Quarter
Feb 14
Full
Feb 22
Last Quarter
Mar 1
New

Hourly Weather History & Observations

Time (CST) Temp. Windchill Dew Point Humidity Pressure Visibility Wind Dir Wind Speed Gust Speed Precip Events Conditions
12:52 AM 24.1 °F 13.1 °F 9.0 °F 53% 30.09 in - North 11.5 mph 18.4 mph N/A   Unknown
1:52 AM 24.1 °F 17.0 °F 9.0 °F 53% 30.10 in - North 5.8 mph - N/A   Unknown
2:52 AM 21.9 °F 12.5 °F 6.1 °F 51% 30.12 in - North 8.1 mph - N/A   Unknown
3:52 AM 21.9 °F 12.5 °F 6.1 °F 51% 30.13 in - NNE 8.1 mph - N/A   Unknown
4:52 AM 21.0 °F 9.9 °F 6.1 °F 53% 30.13 in - North 10.4 mph - N/A   Unknown
5:52 AM 19.0 °F 9.0 °F 7.0 °F 59% 30.15 in - North 8.1 mph - N/A   Unknown
6:52 AM 17.1 °F 5.8 °F 8.1 °F 68% 30.18 in - NNE 9.2 mph - 0.01 in   Unknown
7:52 AM 16.0 °F 4.4 °F 10.0 °F 77% 30.19 in - NNE 9.2 mph - 0.01 in   Unknown
8:52 AM 16.0 °F 6.3 °F 9.0 °F 74% 30.20 in - NNE 6.9 mph - 0.01 in   Unknown
9:52 AM 16.0 °F 4.4 °F 10.0 °F 77% 30.21 in - NNE 9.2 mph - 0.02 in   Unknown
10:52 AM 16.0 °F 5.3 °F 10.9 °F 81% 30.22 in - North 8.1 mph - 0.04 in   Unknown
11:52 AM 17.1 °F 5.8 °F 10.9 °F 77% 30.20 in - NNE 9.2 mph - 0.02 in   Unknown
12:52 PM 18.0 °F 5.4 °F 10.9 °F 74% 30.16 in - NNE 11.5 mph - 0.01 in   Unknown
1:52 PM 18.0 °F 4.8 °F 10.9 °F 74% 30.14 in - NNE 12.7 mph - N/A   Unknown
2:52 PM 19.0 °F 9.0 °F 12.0 °F 74% 30.12 in - NE 8.1 mph - N/A   Unknown
3:52 PM 19.9 °F 9.3 °F 12.0 °F 71% 30.13 in - NE 9.2 mph - N/A   Unknown
4:52 PM 19.9 °F 9.3 °F 12.0 °F 71% 30.11 in - NE 9.2 mph - N/A   Unknown
5:52 PM 19.0 °F 5.6 °F 12.0 °F 74% 30.10 in - NE 13.8 mph - N/A   Unknown
6:52 PM 19.0 °F 11.1 °F 12.0 °F 74% 30.10 in - ENE 5.8 mph - N/A   Unknown
7:52 PM 19.0 °F 10.0 °F 12.9 °F 77% 30.10 in - ENE 6.9 mph - N/A   Unknown
8:52 PM 19.0 °F 12.3 °F 12.9 °F 77% 30.09 in - NE 4.6 mph - N/A   Unknown
9:52 PM 19.0 °F 12.3 °F 12.9 °F 77% 30.09 in - NE 4.6 mph - N/A   Unknown
10:52 PM 19.0 °F 11.1 °F 14.0 °F 81% 30.05 in - ENE 5.8 mph - N/A   Unknown
11:52 PM 19.0 °F 9.0 °F 14.0 °F 81% 30.02 in - NE 8.1 mph - N/A   Unknown